Location: *
(50.6089°N, 2.2719°E)
Time: 04:59:54
(UTC+00:00)

STARLINK-50 - Pass Details

Date: 18 October 2019
Orbit: 548 x 551 km, 53.0° (Epoch: 16 November)

Event Time Altitude Azimuth Distance (km) Brightness Sun altitude
Rises 18:45:57 0° 269° (W) 2,716 8.8 -18.6°
Reaches altitude 10° 18:48:12 10° 272° (W) 1,823 7.5 -18.9°
Maximum altitude 18:52:18 63° 354° (N) 618 3.8 -19.6°
Enters shadow 18:53:22 45° 53° (NE) 759 4.0 -19.7°
